Location: Peterborough
(44.3091°N, 78.3197°W)
Time: 16:02:45
(UTC-04:00)

Explorer 7 - Pass Details

Date: 22 March 2023
Orbit: 477 x 653 km, 50.3° (Epoch: 04 June)

Event Time Altitude Azimuth Distance (km) Brightness Sun altitude
Rises 19:44:19 0° 247° (WSW) 2,857 11.7 -3.7°
Reaches altitude 10° 19:46:41 10° 249° (WSW) 1,925 10.8 -4.2°
Maximum altitude 19:51:05 73° 335° (NNW) 598 7.1 -4.9°
Drops below altitude 10° 19:55:13 10° 60° (ENE) 1,815 9.0 -5.7°
Enters shadow 19:56:45 - 62° (ENE) 2,422 9.6 -6.0°
Sets 19:57:24 0° 63° (ENE) 2,678 - -6.1°
